GFSSW_925_thetae_159.txt.gz
Theta_e
314 315 313 315 316 316 315 313 313 312 312 312 312 310 308 310 313 315 320 320 319 319 318 323 324 325 324 324 328 322 329 333 333 332 332 327 327 322 323 327 326 326 327 329 336
313 313 313 313 313 315 316 315 313 314 312 312 311 311 309 308 313 316 312 315 319 320 323 324 323 326 321 324 329 326 328 330 328 327 330 328 326 324 325 325 327 328 332 332 335
312 313 313 314 314 312 312 316 315 313 313 313 312 311 311 311 313 310 302 303 310 319 321 324 325 327 325 324 330 328 329 327 329 327 326 328 325 326 323 325 324 326 328 331 333
311 312 312 313 312 310 310 311 316 314 313 313 312 311 311 312 299 318 319 310 306 321 322 322 324 327 325 324 325 332 329 328 329 326 327 328 328 329 326 324 321 322 324 331 330
309 310 312 313 312 310 310 310 314 315 313 313 312 311 311 312 312 314 317 322 313 321 322 319 325 326 325 323 323 328 328 328 327 325 326 326 328 327 327 324 324 324 327 331 331
307 308 309 312 312 311 310 310 311 316 314 313 312 311 311 311 308 306 308 321 311 320 321 320 322 323 326 323 323 321 325 326 323 326 325 328 327 327 327 324 324 324 325 330 331
306 307 307 310 311 312 310 310 311 313 315 313 312 312 312 309 307 306 311 322 316 320 320 321 322 323 323 327 322 322 324 322 321 322 323 325 327 327 324 324 325 324 323 322 328
304 305 306 309 310 311 310 309 311 311 315 313 312 313 312 310 310 307 310 320 322 320 321 320 321 320 322 321 322 324 323 326 322 321 321 322 324 319 320 324 325 322 320 318 318
303 304 304 306 308 309 310 310 310 311 315 314 313 312 314 310 310 309 307 313 322 321 321 320 320 321 322 322 325 322 323 324 323 320 321 321 322 319 317 319 320 318 316 316 316
303 303 305 303 305 307 309 309 309 311 314 314 312 313 311 311 310 310 307 310 321 320 321 321 321 321 321 325 318 322 323 321 322 320 320 321 321 318 316 316 316 316 316 314 314
302 303 304 305 304 306 308 309 309 311 314 315 314 313 311 309 310 309 308 308 314 319 321 320 321 322 321 323 317 318 320 321 319 319 320 320 320 319 316 314 314 315 314 314 316
301 302 304 304 306 305 308 309 308 311 314 314 312 312 309 309 308 307 308 311 316 319 318 321 321 316 315 320 322 320 319 319 318 317 318 316 317 316 315 314 314 314 313 313 314
301 302 302 304 305 306 307 309 307 310 313 312 312 312 311 308 308 308 308 312 316 317 318 315 314 315 316 318 323 323 323 318 319 318 317 318 320 318 315 313 313 313 313 314 313
301 302 301 303 304 306 306 308 307 309 312 311 314 313 311 310 310 307 308 312 316 316 316 316 314 316 317 318 319 321 320 317 319 320 319 318 318 316 316 316 315 314 313 313 313
301 302 302 302 303 303 307 307 307 308 312 311 313 311 311 310 308 308 308 313 315 314 315 316 315 316 319 318 318 317 318 320 318 319 320 319 321 318 316 317 315 313 312 312 311
301 301 303 302 301 304 305 306 307 310 311 312 312 314 313 309 309 307 308 311 311 314 313 312 312 314 316 316 318 316 318 318 317 319 321 317 319 317 317 315 315 314 313 312 310
301 301 302 300 303 302 305 307 309 311 307 310 311 312 313 310 311 310 309 313 314 314 315 313 314 313 315 317 317 319 321 323 325 322 322 315 321 319 313 312 313 313 313 312 311
301 301 301 300 299 303 306 307 309 308 308 306 311 312 313 312 312 310 310 312 311 308 309 312 313 313 312 317 318 320 319 319 316 319 318 315 322 319 315 314 313 312 311 311 310
300 299 300 299 299 301 304 309 308 306 307 310 312 313 313 313 312 311 310 311 311 308 308 311 311 311 312 313 316 318 322 315 315 307 313 315 316 315 314 313 314 313 310 309 309
299 299 299 299 298 297 300 306 304 306 306 309 311 313 312 313 313 311 311 309 309 309 306 308 311 309 312 315 313 316 314 320 319 320 318 316 317 316 314 314 311 309 309 309 308
298 297 297 299 299 298 301 300 300 301 302 308 310 312 311 313 311 311 310 307 308 309 307 306 307 309 309 314 316 317 317 316 314 316 314 313 315 310 312 312 309 307 309 307 306
296 298 297 300 300 300 300 298 302 303 304 303 308 310 311 312 311 311 309 308 307 308 310 307 306 310 311 308 312 314 315 314 316 315 314 314 313 310 310 310 307 307 307 308 307
297 297 299 299 298 299 296 300 301 303 303 307 308 309 308 312 312 310 307 306 306 308 310 309 307 304 310 311 311 314 314 313 313 309 315 317 314 307 306 305 304 305 304 304 304
296 297 296 299 293 297 294 296 299 302 302 302 303 307 309 311 308 311 308 307 307 308 311 310 306 310 309 309 311 314 314 314 315 316 314 315 313 310 308 305 304 304 305 306 301
296 298 291 298 298 296 295 297 300 302 301 301 306 309 309 311 308 308 308 308 308 308 310 310 311 304 305 306 310 311 312 313 316 315 314 313 313 310 308 306 306 306 306 298 298
297 297 297 296 298 295 298 299 300 301 303 304 304 308 308 309 309 308 306 308 309 307 309 309 311 306 304 306 305 304 311 312 313 315 314 311 310 308 306 305 297 295 296 295 293
294 296 297 300 298 298 298 299 301 302 303 302 303 307 309 308 306 306 306 307 307 308 309 310 308 310 312 306 306 303 305 308 310 308 313 314 313 306 302 297 293 291 290 290 289

GFSSW_925_thetae_162.txt.gz
Theta_e
313 314 315 315 314 317 317 315 313 312 312 312 311 311 310 307 307 309 315 315 319 319 319 318 320 324 323 323 325 321 329 332 332 331 331 325 325 321 322 326 325 323 326 328 333
312 313 313 314 314 314 316 316 315 313 312 312 312 311 310 309 308 311 305 307 313 319 320 323 320 324 320 322 327 324 327 330 327 327 329 327 325 322 324 326 326 327 331 331 333
311 312 312 313 314 314 313 313 316 316 313 313 312 311 311 310 310 305 305 302 302 311 320 323 324 325 325 322 329 326 327 325 328 326 326 327 326 325 323 325 323 325 325 331 330
309 310 311 312 313 314 315 312 312 314 315 313 312 311 311 310 299 318 320 318 307 307 321 321 323 326 325 323 324 330 327 326 328 326 326 328 326 328 322 323 321 322 323 330 329
307 307 309 310 311 313 313 312 310 311 315 314 312 312 311 311 310 308 311 313 317 319 323 318 324 323 324 322 322 329 327 327 327 325 325 325 327 327 326 323 322 323 323 329 329
304 305 307 308 308 311 313 312 311 310 312 315 313 312 311 311 308 308 306 307 316 314 322 319 319 322 323 322 322 320 324 326 324 325 324 327 325 326 325 324 323 323 323 326 329
304 304 305 306 308 308 312 312 312 310 311 315 314 312 312 311 309 306 308 314 320 313 319 320 321 322 323 326 322 322 325 322 320 321 322 323 324 325 322 325 325 323 322 321 324
303 304 305 305 306 307 310 312 312 310 311 314 314 313 313 312 311 310 308 316 321 317 320 320 320 320 321 321 321 324 323 325 321 320 320 321 323 317 319 323 324 323 320 319 318
301 302 304 305 305 307 309 310 311 311 310 311 314 313 315 311 310 310 310 308 321 320 320 320 319 320 321 320 322 321 318 322 320 318 320 321 322 318 316 320 321 319 316 315 314
300 301 302 304 305 304 306 309 310 310 311 311 313 314 311 311 310 310 309 309 317 320 320 320 318 319 319 323 315 319 322 319 319 318 318 320 321 318 316 316 315 314 314 313 314
299 301 302 303 304 306 306 308 310 310 310 311 315 313 312 310 309 309 309 308 311 318 317 317 317 318 318 319 315 312 318 319 317 318 321 319 319 319 316 314 314 314 312 311 312
299 300 302 303 304 305 306 308 309 309 310 310 313 313 310 309 308 307 308 309 316 318 315 318 318 313 314 317 319 317 318 317 317 317 318 316 316 314 313 312 311 311 310 309 310
298 300 301 302 303 304 306 306 308 308 311 310 311 313 310 309 309 308 307 310 316 317 317 313 312 313 314 317 321 321 319 316 317 317 316 317 317 314 313 313 312 311 311 310 311
298 300 300 302 302 303 304 304 306 307 310 310 312 313 312 309 310 308 307 312 314 317 315 314 310 313 315 316 319 320 318 316 317 318 317 315 311 310 312 314 314 313 311 311 311
299 299 300 301 301 303 303 305 306 306 312 310 311 311 312 311 308 308 307 312 313 313 314 314 312 312 315 315 317 315 317 319 316 316 318 316 318 314 315 316 314 312 311 310 309
299 300 301 301 301 302 303 304 306 309 311 311 312 314 313 311 310 306 307 310 311 313 312 311 311 312 312 313 315 313 315 317 316 320 319 315 316 312 310 313 314 313 312 311 311
300 301 300 300 302 301 302 305 307 309 307 310 312 313 313 312 311 310 310 313 315 317 317 313 313 312 313 316 315 316 316 313 318 320 316 310 315 312 311 311 311 310 311 311 311
301 301 300 300 300 301 302 306 307 307 306 308 311 313 314 311 312 311 310 313 313 310 312 314 315 312 311 316 316 317 316 311 310 315 315 313 318 314 313 312 311 309 310 310 308
299 300 299 299 298 299 302 305 305 305 307 311 310 313 313 312 312 311 311 312 314 310 308 312 312 308 311 314 314 316 319 313 314 308 311 313 313 313 312 312 312 312 309 307 306
299 299 299 300 299 297 299 305 307 305 307 310 311 310 313 312 313 312 311 310 312 311 305 307 309 309 311 313 314 314 314 318 317 316 318 314 316 315 313 311 310 309 307 306 305
298 298 297 299 298 296 300 300 301 300 304 309 308 312 311 312 312 311 310 309 310 311 307 305 306 308 312 314 314 315 316 314 313 317 316 312 314 310 312 312 309 307 306 304 302
295 297 297 298 298 299 299 299 302 303 301 304 307 308 310 311 313 313 310 308 308 309 310 305 305 310 312 307 310 312 313 314 316 314 315 313 312 308 308 309 306 307 304 303 301
297 295 298 298 299 298 297 299 300 301 303 305 306 308 307 309 312 311 309 307 307 307 309 307 308 307 311 311 310 313 313 312 311 308 312 315 313 307 307 305 306 304 303 300 298
295 293 297 299 292 294 296 296 298 300 302 303 302 303 307 310 308 311 308 306 306 307 309 309 307 309 310 308 309 313 313 313 313 314 313 313 310 309 306 303 303 302 300 298 297
296 297 290 297 298 287 294 296 300 299 298 301 302 302 304 310 311 310 308 307 306 308 309 309 311 307 306 306 308 310 311 312 313 313 313 311 311 311 305 303 302 300 296 295 292
297 296 296 292 290 293 291 294 299 299 300 300 301 303 303 303 307 310 308 308 308 307 309 310 310 306 303 305 307 307 309 310 313 313 312 310 309 307 304 298 297 296 295 292 290
295 294 296 296 289 296 294 295 297 298 300 300 301 302 303 303 302 306 307 307 306 307 310 310 311 311 311 306 307 308 308 310 310 311 313 314 312 304 298 296 293 290 288 287 286

GFSSW_925_thetae_165.txt.gz
Theta_e
311 312 313 314 314 315 317 317 314 313 312 312 311 310 310 309 307 305 308 309 316 318 318 317 315 321 321 323 324 321 330 331 332 330 330 323 324 320 321 325 323 322 324 327 332
310 311 312 313 313 313 315 316 317 315 313 312 312 311 310 310 308 308 302 302 305 315 317 321 319 323 319 322 326 324 328 330 327 326 328 326 324 322 323 326 326 326 328 330 332
309 310 311 311 312 312 314 314 315 316 316 313 312 312 311 309 306 303 318 313 309 306 316 321 323 324 324 321 327 323 327 324 326 325 325 327 325 324 322 325 324 325 325 330 330
308 309 309 310 311 312 313 314 313 313 314 316 313 312 311 309 300 316 316 310 316 307 314 321 322 324 324 323 323 327 325 324 326 326 325 327 326 327 321 323 320 321 324 330 330
306 307 308 306 308 310 312 313 314 311 312 314 314 312 311 310 308 307 309 307 315 309 319 318 322 321 323 321 322 329 325 325 325 325 324 324 327 327 326 323 321 323 323 325 329
304 304 306 306 305 307 310 312 313 312 310 311 315 313 311 311 310 309 307 306 317 319 321 318 319 320 320 321 321 319 325 325 323 325 324 326 324 324 324 322 323 322 323 322 327
303 304 304 305 306 306 307 309 312 312 310 310 314 314 311 311 310 306 306 310 317 313 318 319 321 322 321 324 320 321 323 321 320 322 323 322 323 323 321 322 324 323 322 321 321
302 303 302 303 305 305 305 307 310 312 312 310 313 314 314 312 311 310 308 310 319 316 319 320 320 319 321 320 320 323 323 324 319 320 321 322 321 318 317 321 322 321 321 320 319
300 301 302 303 303 304 305 307 308 311 311 310 312 314 315 312 311 312 311 310 313 319 319 319 319 320 320 320 321 319 313 321 319 317 319 322 321 318 315 319 321 320 319 318 315
301 301 301 302 301 304 304 305 308 310 311 311 312 314 311 312 310 311 310 310 314 318 319 319 316 317 318 320 313 316 321 317 316 316 318 320 323 318 316 317 318 317 315 314 313
300 300 300 301 303 302 304 305 308 311 310 310 311 313 311 310 310 309 310 308 308 316 317 316 316 315 316 319 311 310 316 316 315 316 319 319 319 319 316 314 314 314 312 313 313
300 300 299 301 302 303 302 305 308 309 311 310 308 311 310 310 309 307 308 309 313 317 314 317 316 311 311 314 317 315 314 315 316 316 317 316 317 315 314 314 315 316 314 312 310
300 299 299 300 301 302 303 304 306 307 310 308 309 309 311 309 310 308 307 309 314 316 315 313 311 312 312 315 319 319 318 315 313 315 314 314 312 314 312 313 310 311 311 310 310
300 300 299 299 300 301 302 302 304 305 309 310 311 309 311 310 312 308 307 312 314 316 315 314 309 312 314 315 316 317 316 314 316 315 313 310 307 306 307 309 312 311 311 311 311
300 300 300 299 299 300 301 301 303 304 310 308 310 309 309 311 310 308 307 311 314 312 314 312 311 311 313 313 315 314 316 317 315 316 317 315 317 311 313 313 313 312 310 309 309
300 300 299 299 300 300 300 301 303 306 310 311 311 312 311 310 310 307 308 308 310 312 312 310 310 308 309 311 315 312 314 315 315 318 317 312 315 309 310 313 312 314 312 310 309
299 300 299 299 299 300 300 302 305 307 307 309 311 311 311 312 311 310 311 311 314 315 315 312 311 312 310 313 313 314 313 311 316 319 315 310 314 311 308 309 310 311 310 308 308
300 299 299 299 299 300 301 303 305 301 308 308 310 311 311 310 311 311 311 311 312 311 310 313 314 311 311 312 314 316 314 310 310 311 312 310 315 312 309 309 308 307 307 308 305
298 299 299 299 299 299 300 303 304 299 304 309 310 310 311 311 310 311 311 311 312 310 311 313 312 308 311 313 312 315 317 310 312 309 311 311 310 312 311 311 311 310 307 308 303
298 298 299 299 300 298 298 302 303 304 306 304 310 310 311 311 312 312 311 311 311 310 305 308 310 308 310 313 312 313 312 316 315 313 311 313 313 313 312 311 309 309 308 305 301
298 298 297 299 298 296 299 300 300 300 303 309 305 308 311 312 311 312 311 309 309 311 307 304 306 308 311 314 315 315 316 313 312 312 312 310 308 308 311 310 310 308 306 302 300
295 295 297 298 298 297 299 299 300 302 299 303 304 307 308 310 312 311 310 309 309 310 311 304 305 309 311 307 309 313 314 314 315 315 314 313 312 306 307 308 307 306 301 299 297
296 295 297 298 299 298 298 300 299 300 300 303 306 308 307 310 312 311 308 307 308 309 311 308 309 311 312 310 309 311 312 313 312 307 314 316 313 306 306 305 305 302 299 297 295
294 293 295 298 290 294 298 297 300 300 301 301 302 302 308 310 309 312 311 306 306 309 311 309 309 311 310 309 308 312 311 311 313 315 313 312 311 307 306 306 303 299 297 296 294
295 288 288 289 297 284 294 296 300 301 299 301 302 303 306 308 309 310 309 307 307 309 310 310 312 310 308 305 307 310 311 311 312 313 312 311 309 309 305 304 301 297 295 293 291
297 293 293 286 287 295 294 296 299 299 299 300 301 301 302 303 305 310 307 308 308 307 309 309 312 310 310 306 306 308 308 310 311 312 312 310 308 307 302 299 297 297 295 292 289
296 293 291 292 285 292 295 294 297 297 298 299 300 301 302 302 301 301 302 304 305 308 308 310 311 311 311 307 307 309 309 308 310 311 311 312 311 304 301 303 298 295 292 289 286

GFSSW_925_thetae_168.txt.gz
Theta_e
311 312 312 312 314 313 315 316 317 314 312 311 311 310 310 309 307 307 305 308 314 314 315 316 317 318 322 326 328 327 335 337 336 334 332 327 331 325 325 329 327 329 327 331 335
310 310 311 311 312 313 312 315 316 317 314 312 311 311 311 309 309 309 304 303 304 311 317 318 316 321 322 324 330 327 329 333 332 332 333 329 328 328 329 330 330 330 330 332 335
308 309 309 310 311 312 312 313 314 316 317 315 312 312 311 309 310 304 315 309 311 305 318 321 322 323 321 324 326 327 323 329 331 330 329 331 329 326 328 330 330 330 330 333 336
307 307 308 309 310 310 312 312 313 314 315 316 314 312 311 309 307 315 315 308 317 309 318 317 320 319 320 322 326 325 326 327 329 329 329 331 330 331 328 330 325 326 327 332 334
305 306 305 307 308 307 309 311 313 314 313 313 316 313 311 312 312 312 310 308 312 311 312 314 316 317 318 321 326 328 324 327 327 327 327 327 330 331 330 329 324 326 326 329 331
304 304 303 304 306 307 306 308 311 313 313 311 313 314 310 314 311 310 308 308 316 313 311 316 315 318 317 321 321 323 325 326 327 328 327 328 326 328 328 328 328 327 327 328 329
303 304 304 303 303 306 306 305 308 311 313 312 312 315 311 313 311 306 309 311 318 315 314 318 321 318 320 322 322 322 322 325 326 326 326 325 325 326 323 324 326 328 329 329 328
302 302 303 303 302 302 306 305 305 308 312 312 311 314 315 313 312 308 309 311 319 316 318 320 320 321 322 321 323 321 321 319 319 323 324 323 321 320 320 323 323 322 322 324 324
302 301 302 302 301 302 302 304 305 307 310 311 312 313 316 312 310 311 310 311 316 317 318 319 319 319 322 319 318 322 314 320 315 321 320 324 319 318 319 322 322 322 322 322 323
300 301 301 302 303 302 302 305 305 308 309 312 312 313 312 313 311 311 311 311 315 318 317 318 317 318 318 319 310 316 315 316 316 317 322 321 321 319 320 320 321 321 321 322 322
301 300 301 301 301 303 302 305 306 307 310 311 311 312 312 310 310 311 310 310 315 317 316 316 316 316 315 317 310 310 315 313 315 316 321 319 319 318 318 320 320 320 320 320 320
300 300 301 301 301 302 302 303 305 308 311 311 309 310 311 310 312 308 309 312 315 317 314 317 316 311 311 316 316 312 312 313 316 317 319 316 317 316 317 317 318 318 318 318 317
300 300 300 300 300 301 302 302 305 306 310 310 311 310 312 310 312 311 310 313 314 315 315 313 311 311 313 315 317 316 314 312 310 317 318 319 315 315 315 316 316 316 316 316 316
300 300 300 300 299 300 301 302 301 304 307 309 311 311 310 311 312 310 309 312 315 316 315 314 311 313 313 311 312 312 314 315 314 313 310 313 307 309 310 312 315 316 316 316 316
300 301 300 300 299 300 300 301 301 302 309 310 310 310 311 313 310 311 308 311 315 315 314 314 314 313 315 313 312 311 314 316 315 315 314 312 314 308 313 311 313 315 317 317 317
299 300 300 300 299 299 300 300 301 304 308 310 310 311 313 312 311 309 309 309 312 314 314 313 312 313 312 313 314 314 317 318 318 317 318 311 312 310 309 310 312 316 316 316 315
299 299 300 300 300 299 299 301 304 306 308 310 310 311 311 313 312 311 312 311 315 316 317 314 314 312 311 313 315 315 316 317 319 319 317 309 312 310 310 311 311 312 314 314 314
299 299 299 299 299 298 299 302 303 304 307 308 310 311 311 311 311 312 313 313 313 314 315 316 316 314 312 312 314 316 314 312 312 314 312 313 313 311 312 311 311 312 313 313 312
298 299 299 299 298 298 300 302 303 302 304 308 310 312 311 311 310 312 313 313 313 313 313 315 313 312 313 311 313 315 315 310 308 310 315 310 312 311 312 313 312 315 312 313 309
298 299 299 298 298 299 299 300 303 304 304 305 309 310 313 311 311 312 312 311 311 312 312 312 313 310 312 313 312 314 313 315 314 312 312 309 310 311 314 314 313 314 315 312 306
298 298 297 299 299 297 301 301 301 300 304 305 306 309 311 312 312 312 312 309 310 311 313 311 312 311 312 315 315 313 316 314 313 313 311 309 308 308 309 312 314 314 314 310 305
296 298 297 299 299 299 300 300 300 302 301 303 304 306 308 310 311 312 311 310 310 309 312 312 311 314 313 312 313 314 315 315 315 315 313 311 310 310 311 311 312 313 312 306 303
297 297 296 298 301 300 300 300 300 302 303 303 305 305 305 307 307 311 311 309 310 310 312 312 311 315 313 311 310 315 315 315 314 313 317 317 313 310 310 311 310 310 306 303 300
296 297 295 297 296 299 300 301 300 300 301 301 303 302 303 304 307 308 310 310 309 311 311 312 312 313 313 312 311 313 314 315 315 317 315 315 313 312 310 311 308 306 303 301 299
295 296 295 299 299 296 297 298 300 301 301 302 302 303 304 303 303 309 310 309 308 310 311 311 313 312 312 311 309 312 313 314 316 315 315 315 313 313 312 311 308 305 302 300 298
296 295 292 291 293 297 298 298 299 299 301 301 302 302 302 304 303 308 309 310 310 309 311 311 315 313 312 311 310 311 312 313 313 315 315 314 313 312 311 309 307 303 301 300 298
294 293 297 295 295 297 298 297 298 299 299 300 300 301 302 302 302 300 306 307 307 309 310 311 312 313 314 312 311 311 310 312 312 312 313 315 313 312 309 307 306 303 301 299 295